"Time","Temp","Dewpoint","Humidity","Pressure","Direction","Speed","Gust","Precip","PrecipRate"
"00:04:59","47.9","43.3","84","29.91","25","0","0","0.00","0.00"
"00:09:57","47.7","42.7","82.7","29.91","25","0","0","0.00","0.00"
"00:14:49","47.6","42.7","83","29.91","25","0","0","0.00","0.00"
"00:19:56","47.4","42.5","83","29.91","25","0","0","0.00","0.00"
"00:24:56","47.3","42.5","83.3","29.91","25","0","0","0.00","0.00"
"00:29:59","47","42.4","83.8","29.91","25","0","0","0.00","0.00"
"00:34:58","46.8","42.3","84.5","29.91","25","0","0","0.00","0.00"
"00:39:40","46.5","42.2","85","29.91","25","0","0","0.00","0.00"
"00:44:56","46.2","42.1","85.5","29.91","25","0","0","0.00","0.00"
"00:49:59","46","42.2","86.9","29.91","25","0","0","0.00","0.00"
"00:54:46","45.8","42","86.5","29.91","25","0","0","0.00","0.00"
"00:59:57","45.5","41.7","86.2","29.91","25","0","0","0.00","0.00"
"01:04:41","45.4","41.8","87","29.90","25","0","0","0.00","0.00"
"01:09:58","45.3","41.7","87","29.90","25","0","0","0.00","0.00"
"01:14:58","45.2","41.6","87","29.90","25","0","0","0.00","0.00"
"01:19:56","45.2","41.5","86.8","29.90","25","0","0","0.00","0.00"
"01:24:57","45.1","41.2","86","29.90","25","0","0","0.00","0.00"
"01:29:47","44.9","41.3","87","29.90","25","0","0","0.00","0.00"
"01:34:58","44.8","41.4","87.6","29.89","25","0","0","0.00","0.00"
"01:39:59","44.7","41.6","88.4","29.89","25","0","0","0.00","0.00"
"01:44:57","44.7","41.7","89","29.89","25","0","0","0.00","0.00"
"01:49:56","44.6","41.6","89","29.89","25","0","0","0.00","0.00"
"01:54:55","44.6","41.4","88.4","29.89","25","0","0","0.00","0.00"
"01:59:58","44.5","41.2","88","29.89","25","0","0","0.00","0.00"
"02:04:59","44.6","41.3","88","29.89","25","0","0","0.00","0.00"
"02:09:56","44.6","40.9","86.7","29.89","25","0","0","0.00","0.00"
"02:14:56","44.6","40.1","84.2","29.89","25","0","0","0.00","0.00"
"02:19:58","44.7","40.1","83.9","29.89","25","0","0","0.00","0.00"
"02:24:45","44.7","40","83.3","29.89","25","0","0","0.00","0.00"
"02:29:59","44.7","40.2","84","29.89","25","0","0","0.00","0.00"
"02:34:58","44.6","40.1","84","29.89","25","0","0","0.00","0.00"
"02:39:45","44.4","39.9","84","29.89","25","0","0","0.00","0.00"
"02:44:51","44.1","39.9","84.8","29.89","25","0","0","0.00","0.00"
"02:49:41","43.9","39.6","84.7","29.89","25","0","0","0.00","0.00"
"02:54:56","43.6","39.1","84","29.89","25","0","0","0.00","0.00"
"02:59:54","43.4","39.2","84.7","29.89","25","0","0","0.00","0.00"
"03:04:31","43.2","39","85","29.89","25","0","0","0.00","0.00"
"03:09:58","43","39.1","85.8","29.89","25","0","0","0.00","0.00"
"03:14:58","42.9","38.8","85.3","29.89","25","0","0","0.00","0.00"
"03:19:56","42.9","38.8","85.3","29.89","25","0","0","0.00","0.00"
"03:24:57","43","38.8","85","29.89","25","0","0","0.00","0.00"
"03:29:59","43","39","85.6","29.90","25","0","0","0.00","0.00"
"03:34:56","42.9","39","86","29.90","25","0","0","0.00","0.00"
"03:39:57","42.7","39.1","86.9","29.90","25","0","0","0.00","0.00"
"03:44:30","42.7","39.1","87","29.90","25","0","0","0.00","0.00"
"03:49:56","42.9","39.3","87","29.89","25","0","0","0.00","0.00"
"03:53:59","43.1","39.4","86.6","29.89","25","0.6","2.3","0.00","0.00"
"03:59:52","43.2","39.3","86","29.90","25","1.4","2.3","0.00","0.00"
"04:04:58","43.4","39.5","86","29.90","25","1.3","2.3","0.00","0.00"
"04:09:59","43.5","39.3","85.1","29.90","25","0.9","2.3","0.00","0.00"
"04:14:48","43.5","39.3","84.9","29.90","25","0","0","0.00","0.00"
"04:19:57","43.6","39.1","84","29.90","25","0","0","0.00","0.00"
"04:24:57","43.7","39.3","84.3","29.90","25","0.4","2.3","0.00","0.00"
"04:29:58","43.7","39.2","84","29.90","25","0.1","2.3","0.00","0.00"
"04:34:36","43.8","39.1","83.2","29.90","25","0.1","1.2","0.00","0.00"
"04:39:56","44","39.2","83","29.90","25","0.1","1.2","0.00","0.00"
"04:44:59","44.1","39.1","82.2","29.90","25","0","1","0.00","0.00"
"04:49:59","44.1","39","82","29.90","25","0.1","2.3","0.00","0.00"
"04:54:33","44","39.1","82.5","29.90","25","0","2","0.00","0.00"
"04:59:55","43.7","39.2","84","29.90","25","0.1","2.3","0.00","0.00"
"05:04:56","43.5","39","84","29.90","25","0","0","0.00","0.00"
"05:09:32","43.3","38.9","84.3","29.90","25","0","0","0.00","0.00"
"05:14:41","43","38.7","84.7","29.91","25","0","0","0.00","0.00"
"05:19:57","42.7","38.5","85.2","29.91","25","0","0","0.00","0.00"
"05:24:43","42.6","38.7","86","29.91","25","0","0","0.00","0.00"
"05:29:57","42.5","38.6","86","29.91","25","0","0","0.00","0.00"
"05:34:59","42.5","38.8","86.7","29.90","25","0.3","2.3","0.00","0.00"
"05:39:52","42.3","38.7","87","29.90","25","0.7","2.3","0.00","0.00"
"05:44:59","42","38.7","87.8","29.91","25","0","0","0.00","0.00"
"05:49:57","41.9","38.6","88","29.91","25","0","0","0.00","0.00"
"05:54:27","41.7","38.5","88.3","29.91","25","0.1","1.2","0.00","0.00"
"05:59:57","41.4","38.4","89","29.91","24","0.5","2.3","0.00","0.00"
"06:04:58","41.3","38.3","88.8","29.91","24","1","3.5","0.00","0.00"
"06:09:57","41.1","38.1","89","29.91","24","0.3","2.3","0.00","0.00"
"06:14:57","40.9","37.8","88.8","29.91","24","0","2.3","0.00","0.00"
"06:19:56","40.7","37.6","88.8","29.91","24","0","2","0.00","0.00"
"06:24:52","40.4","37.4","89","29.91","24","0.1","2.3","0.00","0.00"
"06:29:58","40.2","37.4","89.7","29.92","24","0.1","2","0.00","0.00"
"06:34:57","40.1","37.4","90","29.92","24","0.7","2.3","0.00","0.00"
"06:39:58","40","37.3","90","29.92","24","0.5","2.3","0.00","0.00"
"06:44:45","39.9","37.3","90.4","29.92","24","0.2","1.2","0.00","0.00"
"06:49:57","39.7","37.3","91","29.92","24","0.2","2.3","0.00","0.00"
"06:54:57","39.6","37.2","91","29.92","24","0","1.2","0.00","0.00"
"06:59:57","39.5","37.1","91","29.92","24","0","0","0.00","0.00"
"07:04:59","39.5","37.1","91","29.92","24","0","0","0.00","0.00"
"07:09:56","39.7","37.3","91","29.92","24","0","0","0.00","0.00"
"07:14:48","40","37.8","91.9","29.93","24","0","0","0.00","0.00"
"07:19:59","40.2","38","91.5","29.93","24","0","0","0.00","0.00"
"07:24:25","40.6","38.5","92","29.93","24","0","0","0.00","0.00"
"07:29:30","41.2","39.1","92","29.94","24","0","0","0.00","0.00"
"07:30:31","41.6","39.4","92","29.94","24","0","0","0.00","0.00"
"07:38:58","42.9","40.3","90.4","29.94","24","0","0","0.00","0.00"
"07:44:57","43.6","40.6","89.1","29.94","24","0","0","0.00","0.00"
"07:49:31","44.2","40.8","87.8","29.94","24","0","0","0.00","0.00"
"07:54:22","44.8","41.1","86.6","29.94","311","0.6","3.5","0.00","0.00"
"07:59:57","45.8","41.3","84.4","29.94","316","0.6","3.5","0.00","0.00"
"08:04:03","46.7","41.2","81","29.94","325","1.3","3.5","0.00","0.00"
"08:09:59","47.7","41.6","79.4","29.94","320","0.7","2.3","0.00","0.00"
"08:14:26","48.4","41.5","76.7","29.94","298","1","3.5","0.00","0.00"
"08:19:59","49.1","41.4","74.8","29.94","286","1.4","5","0.00","0.00"
"08:24:37","49.6","41.5","73.4","29.94","313","2.5","6","0.00","0.00"
"08:29:55","50","41.5","72.4","29.95","272","1.4","5.8","0.00","0.00"
"08:34:58","50.4","41.1","70.4","29.95","319","3.1","9.2","0.00","0.00"
"08:39:58","50.7","41.1","69.7","29.95","280","2.3","4.6","0.00","0.00"
"08:44:57","51","41.6","70.2","29.95","336","2.1","5","0.00","0.00"
"08:49:39","51.6","41.5","68.1","29.95","275","1.8","5","0.00","0.00"
"08:54:57","51.9","41.3","66.9","29.95","313","2","5","0.00","0.00"
"08:59:58","52.3","41.3","66","29.95","315","3","7","0.00","0.00"
"09:04:56","52.5","40.9","64.6","29.95","338","3.9","8.1","0.00","0.00"
"09:09:56","52.7","41","64.4","29.95","341","3.8","9.2","0.00","0.00"
"09:14:57","52.9","40.9","63.8","29.95","346","3.8","10.4","0.00","0.00"
"09:19:56","53.1","41.4","64.4","29.95","336","1.8","6","0.00","0.00"
"09:24:58","53.4","41.2","63.2","29.95","310","2.9","5","0.00","0.00"
"09:29:59","53.7","41.3","62.7","29.95","329","2.4","5","0.00","0.00"
"09:34:57","54.2","41.9","63","29.95","333","1","4.6","0.00","0.00"
"09:39:56","54.7","42.4","63.2","29.95","256","2.2","5","0.00","0.00"
"09:44:57","55","42.3","62.4","29.95","251","2.1","5","0.00","0.00"
"09:49:59","55.3","42.4","61.7","29.95","298","2.5","6","0.00","0.00"
"09:54:57","55.5","41.7","59.8","29.95","273","2.1","10.4","0.00","0.00"
"09:59:58","55.7","40.9","57.5","29.95","288","2.3","5","0.00","0.00"
"10:04:56","56","41.2","57.3","29.95","281","2","5","0.00","0.00"
"10:09:56","56.3","41.7","57.9","29.95","258","2.7","6","0.00","0.00"
"10:14:56","56.5","42.2","58.7","29.95","243","3","6","0.00","0.00"
"10:19:53","57","42","57.2","29.94","317","2.6","6","0.00","0.00"
"10:24:59","57.3","41","54.5","29.94","316","3.5","9.2","0.00","0.00"
"10:29:40","57.1","41","54.8","29.94","282","3.5","9.2","0.00","0.00"
"10:34:38","57.3","42.2","57.1","29.94","261","3.1","6","0.00","0.00"
"10:39:58","57.8","42.2","56","29.94","254","3.9","10","0.00","0.00"
"10:44:59","58.3","42.8","56.3","29.94","270","4","9.2","0.00","0.00"
"10:49:56","58.5","42.5","55.5","29.94","275","3.2","10.4","0.00","0.00"
"10:54:57","58.6","42.3","54.6","29.94","291","3","9","0.00","0.00"
"10:59:35","58.6","42.4","54.9","29.94","251","3.8","8.1","0.00","0.00"
"11:04:56","58.8","43.6","57.1","29.94","227","4.6","12","0.00","0.00"
"11:09:56","58.9","42.1","53.6","29.94","290","2.9","6","0.00","0.00"
"11:14:56","59.2","43.3","55.6","29.94","295","2.9","7","0.00","0.00"
"11:19:57","59.5","43.5","55.4","29.93","251","2.9","7","0.00","0.00"
"11:24:18","59.9","43.5","54.7","29.93","231","5.8","12","0.00","0.00"
"11:29:32","60.5","43.4","53.1","29.93","319","4.3","8.1","0.00","0.00"
"11:34:45","60.4","42.7","52.1","29.92","294","3.6","8","0.00","0.00"
"11:39:56","60.4","43.5","53.7","29.92","282","2.8","8.1","0.00","0.00"
"11:44:33","60.7","42.1","50.5","29.92","351","3.1","12","0.00","0.00"
"11:49:30","60.9","42.8","51.4","29.92","1","2.6","10","0.00","0.00"
"11:54:41","61","42.9","51.4","29.92","311","3.4","8.1","0.00","0.00"
"11:59:56","60.8","41.8","49.6","29.92","280","3.2","10.4","0.00","0.00"
"12:04:59","60.8","43.3","52.4","29.92","232","2.9","6.9","0.00","0.00"
"12:09:47","60.9","41.4","48.8","29.92","320","3.1","9.2","0.00","0.00"
"12:14:56","60.9","41.1","48.2","29.92","338","4.4","11","0.00","0.00"
"12:19:58","60.9","41.7","49.2","29.92","332","3.6","8.1","0.00","0.00"
"12:24:57","60.8","41.2","48.5","29.92","338","2.4","7","0.00","0.00"
"12:28:56","60.8","41.9","49.8","29.92","326","2.3","6","0.00","0.00"
"12:34:58","61.3","42.9","50.8","29.91","282","4.4","7","0.00","0.00"
"12:39:59","61.7","41.5","47.5","29.91","249","4","11","0.00","0.00"
"12:44:42","61.9","41.9","47.9","29.91","233","5.5","11.5","0.00","0.00"
"12:49:57","62.3","42.6","48.6","29.91","232","5.1","12","0.00","0.00"
"12:54:57","62.3","42.2","47.9","29.91","283","2.9","9.2","0.00","0.00"
"12:59:56","62.2","43.4","50","29.91","334","3.3","9","0.00","0.00"
"13:04:57","62.7","43.5","49.4","29.91","251","4","9.2","0.00","0.00"
"13:09:57","62.9","44.5","51","29.91","247","4.2","10.4","0.00","0.00"
"13:14:39","62.9","43.5","49.1","29.91","251","4.8","9.2","0.00","0.00"
"13:19:58","63","44.4","50.6","29.90","232","4.9","10","0.00","0.00"
"13:24:57","63.3","43.5","48.6","29.90","257","4.4","10.4","0.00","0.00"
"13:29:57","63.2","44.9","51.2","29.90","224","4.4","7","0.00","0.00"
"13:34:59","63.4","45","51.1","29.90","239","4.1","9.2","0.00","0.00"
"13:39:57","62.8","42.3","47.2","29.90","284","3.4","11.5","0.00","0.00"
"13:44:56","62.9","43.3","48.9","29.90","323","2.4","6.9","0.00","0.00"
"13:49:59","63.4","44.1","49.4","29.90","225","3.7","7","0.00","0.00"
"13:54:40","63.9","44.7","49.7","29.90","242","4.1","10.4","0.00","0.00"
"13:59:59","64","44","48.1","29.90","214","4.2","9","0.00","0.00"
"14:04:30","63.8","43","46.8","29.89","216","1.7","7","0.00","0.00"
"14:09:55","63.6","42.8","46.6","29.89","301","2.1","8.1","0.00","0.00"
"14:14:40","63.4","42.3","46.2","29.89","234","2.1","5","0.00","0.00"
"14:19:58","63.3","43.3","48.1","29.89","249","3","5","0.00","0.00"
"14:24:59","63.4","41.5","44.6","29.89","333","4","9.2","0.00","0.00"
"14:29:38","63.5","41.9","45.2","29.89","328","1.9","9.2","0.00","0.00"
"14:34:57","63.7","43.5","47.8","29.89","237","2.2","4.6","0.00","0.00"
"14:39:59","63.6","42.8","46.8","29.89","208","2.9","6","0.00","0.00"
"14:44:56","63","41.5","45.3","29.89","219","2.6","7","0.00","0.00"
"14:49:43","62.8","43.5","49.4","29.88","239","4.8","9.2","0.00","0.00"
"14:54:56","62.6","42.7","48.1","29.88","251","2.8","9.2","0.00","0.00"
"14:59:39","62.4","42.6","48.3","29.88","241","3.4","6","0.00","0.00"
"15:04:54","62.3","42.9","49.1","29.88","277","1.8","5","0.00","0.00"
"15:09:59","62.5","42.9","48.8","29.88","238","1.4","3.5","0.00","0.00"
"15:14:57","62.6","42.5","47.8","29.88","313","1.9","5","0.00","0.00"
"15:19:56","62.6","42.8","48.4","29.88","259","1.3","3.5","0.00","0.00"
"15:24:40","62.5","43.1","49","29.88","282","1.7","4","0.00","0.00"
"15:29:57","62.4","43.1","49.3","29.88","251","2.3","5","0.00","0.00"
"15:34:44","62","43.5","50.7","29.88","226","3.3","8","0.00","0.00"
"15:39:58","61.9","42.7","49.4","29.88","254","2.7","5","0.00","0.00"
"15:44:56","61.7","44","52.1","29.88","235","3.4","6","0.00","0.00"
"15:49:40","61.5","44.2","53","29.88","234","3.2","4.6","0.00","0.00"
"15:54:58","61.4","43.9","52.6","29.88","215","3","7","0.00","0.00"
"15:59:58","61.4","43.4","51.6","29.88","237","4.4","11.5","0.00","0.00"
"16:04:56","61.4","43.8","52.5","29.88","236","4.2","6","0.00","0.00"
"16:09:56","61.4","43.9","52.5","29.88","221","3.2","6","0.00","0.00"
"16:14:59","61.5","43.8","52.4","29.88","239","4.2","7","0.00","0.00"
"16:19:58","61.3","42.8","50.5","29.88","242","3.9","7","0.00","0.00"
"16:24:48","61.2","43.2","51.5","29.88","230","2.9","6","0.00","0.00"
"16:29:59","61.2","43.8","52.7","29.88","237","4.3","7","0.00","0.00"
"16:34:59","61.1","43.1","51.6","29.88","228","4.6","9","0.00","0.00"
"16:38:50","61.1","43.1","51.7","29.88","233","3.8","9.2","0.00","0.00"
"16:44:58","61.1","43.1","51.6","29.88","242","3.7","9.2","0.00","0.00"
"16:49:58","61.3","43.7","52.3","29.88","254","2.2","4","0.00","0.00"
"16:54:58","61.5","43.1","50.9","29.88","251","2.4","4","0.00","0.00"
"16:58:42","61.4","43.6","51.9","29.88","246","2.8","5","0.00","0.00"
"17:04:57","61.3","43.5","51.9","29.88","236","2.8","7","0.00","0.00"
"17:09:57","61","43.3","52.1","29.88","233","3.3","6.9","0.00","0.00"
"17:14:57","60.9","42.9","51.6","29.89","225","2.9","5","0.00","0.00"
"17:19:29","60.9","43.6","53","29.89","231","2.5","6","0.00","0.00"
"17:24:58","61","43.4","52.4","29.89","231","3.4","7","0.00","0.00"
"17:29:47","60.9","43.7","53.1","29.89","232","3.1","6.9","0.00","0.00"
"17:34:24","61","44.3","54.1","29.89","236","2.3","4","0.00","0.00"
"17:39:58","61.1","44.5","54.4","29.89","237","3.8","6","0.00","0.00"
"17:44:58","61.1","43.8","53.1","29.89","252","2.9","5","0.00","0.00"
"17:49:59","61","44.4","54.3","29.89","233","3.6","7","0.00","0.00"
"17:54:30","60.9","43.6","53.1","29.89","273","2","6","0.00","0.00"
"17:59:58","60.8","43.5","53","29.89","240","2.4","5","0.00","0.00"
"18:04:58","60.6","43.8","53.9","29.89","230","3.5","5.8","0.00","0.00"
"18:09:58","60.5","43.8","54","29.89","234","2.5","5","0.00","0.00"
"18:14:40","60.6","44.2","54.8","29.89","230","2.7","4","0.00","0.00"
"18:19:57","60.7","44.5","55.3","29.89","225","3.2","6","0.00","0.00"
"18:24:57","60.4","44.1","54.8","29.89","233","3.4","5.8","0.00","0.00"
"18:29:54","60.2","44.2","55.4","29.89","223","2.5","4","0.00","0.00"
"18:34:58","60.1","44.4","56.2","29.89","223","2","3.5","0.00","0.00"
"18:39:50","60","44.1","55.7","29.89","225","1.9","3.5","0.00","0.00"
"18:44:44","59.9","44.4","56.5","29.89","225","1.6","3.5","0.00","0.00"
"18:49:59","59.9","44.7","57.1","29.89","225","0.7","3.5","0.00","0.00"
"18:54:41","59.9","43.8","55.2","29.89","226","0.3","3.5","0.00","0.00"
"18:59:52","60.1","43.4","54.1","29.89","226","0.4","1.2","0.00","0.00"
"19:04:59","60.2","43.7","54.3","29.89","226","1.8","3.5","0.00","0.00"
"19:09:40","60.1","44","55.3","29.89","226","2","4","0.00","0.00"
"19:14:45","60","44.2","55.8","29.89","225","2","3.5","0.00","0.00"
"19:19:36","59.8","43.6","55.1","29.88","225","1.7","4","0.00","0.00"
"19:24:56","59.6","43.4","54.9","29.88","226","1.3","4","0.00","0.00"
"19:29:59","59.5","42.5","53.4","29.88","227","0.8","2.3","0.00","0.00"
"19:34:58","59.3","42.7","54.1","29.88","228","0.6","3","0.00","0.00"
"19:39:59","59.1","43.2","55.7","29.88","228","1","3.5","0.00","0.00"
"19:44:56","58.6","42.7","55.6","29.88","228","0","1.2","0.00","0.00"
"19:49:57","58.2","42.9","56.8","29.88","229","0","1","0.00","0.00"
"19:54:42","57.7","43","58","29.88","228","0","0","0.00","0.00"
"19:59:59","57.2","42.7","58.4","29.89","228","0","1.2","0.00","0.00"
"20:04:18","56.7","43.1","60.1","29.89","228","0","1.2","0.00","0.00"
"20:09:59","56.2","43.1","61.4","29.89","229","0","0","0.00","0.00"
"20:14:58","55.6","43.2","62.9","29.89","229","0","1.2","0.00","0.00"
"20:19:55","55.1","43.4","64.6","29.89","229","0","0","0.00","0.00"
"20:24:56","54.7","43.7","66.2","29.89","228","0","0","0.00","0.00"
"20:29:56","54.3","43.7","67.4","29.89","228","0","0","0.00","0.00"
"20:34:57","54","43.6","67.9","29.89","229","0","0","0.00","0.00"
"20:39:59","53.7","43.3","67.9","29.89","228","0","0","0.00","0.00"
"20:44:56","53.3","43","68","29.89","229","0","0","0.00","0.00"
"20:49:57","53.1","42.8","68","29.89","229","0","0","0.00","0.00"
"20:54:57","52.9","42.7","68.4","29.89","229","0","0","0.00","0.00"
"20:59:59","52.7","43.4","70.4","29.90","229","0.1","1.2","0.00","0.00"
"21:04:54","52.7","43.5","70.7","29.90","229","0.6","2.3","0.00","0.00"
"21:09:59","52.7","44.5","73.4","29.90","229","1.4","2.3","0.00","0.00"
"21:14:58","52.7","45","75","29.90","229","0.9","2.3","0.00","0.00"
"21:19:59","52.6","44.7","74.5","29.90","229","0.5","1.2","0.00","0.00"
"21:24:56","52.5","43.9","72.5","29.90","229","0","0","0.00","0.00"
"21:29:57","52.4","43.7","72.3","29.90","229","0","0","0.00","0.00"
"21:33:55","52.3","44.4","74.3","29.90","229","0","1.2","0.00","0.00"
"21:39:33","52.1","45.1","76.9","29.90","229","0","1.2","0.00","0.00"
"21:44:59","52","45.2","77.4","29.91","229","0","0","0.00","0.00"
"21:49:47","51.9","45.3","78","29.91","229","0","0","0.00","0.00"
"21:54:42","51.8","45.2","78","29.91","229","0","0","0.00","0.00"
"21:59:58","51.7","44.7","76.9","29.91","229","0","0","0.00","0.00"
"22:04:49","51.6","44.6","77","29.91","229","0","0","0.00","0.00"
"22:09:59","51.7","45.1","78","29.91","229","0","0","0.00","0.00"
"22:14:59","51.7","44.8","77.3","29.91","229","0","0","0.00","0.00"
"22:19:59","51.8","45","77.6","29.90","229","0","0","0.00","0.00"
"22:24:57","51.7","45.1","78","29.90","229","0","0","0.00","0.00"
"22:29:57","51.7","45.1","78.2","29.91","229","0","0","0.00","0.00"
"22:34:56","51.6","45.3","79.2","29.91","229","0","0","0.00","0.00"
"22:39:56","51.5","45.5","80","29.91","229","0","0","0.00","0.00"
"22:44:58","51.4","45.7","80.9","29.91","229","0","0","0.00","0.00"
"22:49:55","51.2","45.6","81","29.91","229","0","0","0.00","0.00"
"22:54:57","51.1","45.5","81","29.91","229","0","0","0.00","0.00"
"22:59:58","50.9","45.4","81.3","29.91","229","0","0","0.00","0.00"
"23:04:57","50.8","45","80.5","29.91","229","0","0","0.00","0.00"
"23:09:38","50.8","44.9","80","29.91","229","0","0","0.00","0.00"
"23:14:57","50.8","45.3","81.3","29.91","229","0","0","0.00","0.00"
"23:19:58","50.8","45.5","82","29.91","229","0","0","0.00","0.00"
"23:24:30","50.7","45.3","81.5","29.91","229","0","0","0.00","0.00"
"23:29:58","50.6","45.2","81.8","29.91","229","0","0","0.00","0.00"
"23:34:46","50.5","45.5","83","29.90","229","0","0","0.00","0.00"
"23:39:58","50.4","45.4","83","29.90","229","0","0","0.00","0.00"
"23:44:56","50.2","44.7","81.2","29.90","229","0","0","0.00","0.00"
"23:49:57","50.2","44.8","81.8","29.90","229","0","0","0.00","0.00"
"23:54:59","50.2","45.7","84.4","29.90","229","0","0","0.00","0.00"
"23:59:56","50.2","45.7","84.6","29.90","229","0","0","0.00","0.00"
